Flag for U.S.A. Weather past 2 weeks in Santa Fe, New Mexico, U.S.A.

26 °F


Feels Like: 26 °F
Forecast: 20 / 34 °F
Wind: No wind

Location: Santa Fe County Municipal Airport

Current Time: Nov 30, 2015 at 8:17:17 AM

Latest Report: Nov 30, 2015 at 7:53 AM

Visibility: 10 mi

Pressure: 30.04 "Hg (22.93 "Hg at 2132m altitude)

Humidity: 57%

Dew point: 13 °F

Location of Santa FeLocation

Historic Weather in Santa Fe — Graph


Santa Fe temperature yesterday

Maximum temperature yesterday: 49 °F (at 2:53 PM)
Minimum temperature yesterday: 28 °F (at 11:53 PM)
Average temperature yesterday: 37 °F

Past Weeks' High & Low Weather Summary

High58 °F (Nov 24, 1:53 PM)100% (Nov 15, 9:53 PM)30.37 "Hg (Nov 15, 9:53 PM)
Low22 °F (Nov 22, 2:53 AM)16% (Nov 23, 1:53 PM)29.45 "Hg (Nov 16, 10:53 AM)
Average37 °F67%29.97 "Hg
* Reported Nov 15 6:53 AM — Nov 30 6:53 AM, Santa Fe, Weather by CustomWeather, © 2015

Note: Actual official high and low records may vary slightly from our data, if they occured in-between our weather recording intervals... More about our weather records


Santa Fe weather history for previous 24 hours

Time TempWeatherWind HumidityBarometerVisibility
6:53 AM
Mon, Nov 30
22 °FClear.No wind62%30.04 "Hg10 mi
5:53 AM24 °FClear.10 mph60%29.97 "Hg10 mi
4:53 AM24 °FClear.7 mph62%29.93 "Hg10 mi
3:53 AM27 °FClear.10 mph55%29.92 "Hg10 mi
2:53 AM26 °FClear.8 mph60%29.91 "Hg10 mi
1:53 AM27 °FClear.10 mph58%29.90 "Hg10 mi
12:53 AM26 °FClear.9 mph63%29.91 "Hg10 mi
11:53 PM
Sun, Nov 29
28 °FClear.9 mph61%29.91 "Hg10 mi
10:53 PM30 °FClear.7 mph64%29.89 "Hg10 mi
9:53 PM31 °FClear.6 mph67%29.90 "Hg10 mi
8:53 PM35 °FMostly cloudy.5 mph75%29.91 "Hg10 mi
7:53 PM35 °FMostly cloudy.5 mph75%29.91 "Hg10 mi
6:53 PM35 °FPartly cloudy.8 mph85%29.90 "Hg10 mi
5:53 PM40 °FThunderstorms. Passing clouds.16 mph65%29.85 "Hg7 mi
4:53 PM45 °FMostly cloudy.5 mph51%29.80 "Hg10 mi
3:53 PM48 °FSunny.6 mph43%29.79 "Hg10 mi
2:53 PM49 °FPassing clouds.No wind46%29.80 "Hg10 mi
1:53 PM47 °FScattered clouds.N/A52%29.84 "Hg10 mi
12:53 PM46 °FScattered clouds.5 mph51%29.89 "Hg10 mi
11:53 AM44 °FPassing clouds.7 mph60%29.91 "Hg10 mi
10:53 AM43 °FMostly cloudy.9 mph65%29.97 "Hg10 mi
9:53 AM41 °FPartly sunny.3 mph70%30.00 "Hg10 mi
8:53 AM37 °FSunny.No wind82%30.03 "HgN/A
8:00 AM34 °FPartly sunny.No wind88%30.06 "Hg10 mi
Weather by CustomWeather, © 2015

See weather overviewHow to use our weather pages